Home   Weather   Mostar   Past weeks

Flag for Bosnia-Herzegovina Past Weather in Mostar, Bosnia-Herzegovina — Yesterday and Last 2 Weeks

57 °F

Passing clouds.

Feels Like: 57 °F
Forecast: 41 / 66 °F
Wind: 1 mph from North

Location: Mostar

Current Time: Oct 26, 2016 at 9:31:11 AM

Latest Report: Oct 26, 2016 at 9:00 AM

Visibility: 6 mi

Pressure: 30.12 "Hg

Humidity: 94%

Dew Point: 55 °F

Location of MostarLocation

Past Weather in Mostar — Graph


Mostar Temperature Yesterday

Maximum temperature yesterday: 77 °F (at 4:30 PM)
Minimum temperature yesterday: 48 °F (at 4:00 AM)
Average temperature yesterday: 61 °F

High & Low Weather Summary for the Past Weeks

High77 °F (Oct 15, 1:00 PM)100% (Oct 12, 7:00 AM)30.27 "Hg (Oct 12, 7:00 AM)
Low36 °F (Oct 13, 6:30 AM)36% (Oct 17, 3:00 PM)29.65 "Hg (Oct 12, 2:00 AM)
Average59 °F79%30.03 "Hg
* Reported Oct 11 8:00 AM — Oct 26 8:00 AM, Mostar, Weather by CustomWeather, © 2016

Note: Actual official high and low records may vary slightly from our data, if they occured in-between our weather recording intervals... More about our weather records


Mostar Weather History for the Previous 24 Hours

Scroll right to see more
Time TempWeatherWind HumidityBarometerVisibility
8:00 AM
Wed, Oct 26
55 °FScattered clouds.2 mph94%30.09 "Hg6 mi
7:30 AM55 °FPartly sunny.2 mph94%30.09 "Hg5 mi
7:00 AM55 °FPassing clouds.2 mph100%30.09 "Hg4 mi
6:30 AM55 °FPassing clouds.3 mph100%30.09 "HgN/A
6:00 AM55 °FPassing clouds.5 mph100%30.09 "HgN/A
5:00 AM55 °FPassing clouds.2 mph100%30.09 "HgN/A
4:00 AM55 °FClear.6 mph100%30.12 "Hg10 mi
3:00 AM55 °FClear.1 mph100%30.12 "Hg10 mi
2:00 AM55 °FClear.1 mph100%30.12 "Hg10 mi
1:00 AM57 °FClear.1 mph94%30.12 "Hg10 mi
12:00 AM59 °FClear.6 mph94%30.15 "Hg10 mi
11:00 PM
Tue, Oct 25
61 °FPassing clouds.3 mph88%30.15 "HgN/A
10:00 PM61 °FClear.3 mph88%30.18 "Hg10 mi
9:00 PM63 °FClear.3 mph83%30.18 "Hg10 mi
8:00 PM63 °FPassing clouds.3 mph88%30.15 "HgN/A
7:30 PM63 °FClear.3 mph83%30.18 "Hg10 mi
7:00 PM64 °FClear.6 mph83%30.15 "Hg10 mi
6:30 PM66 °FClear.5 mph78%30.15 "Hg10 mi
6:00 PM68 °FClear.2 mph73%30.15 "Hg10 mi
5:30 PM72 °FSunny.1 mph61%30.15 "Hg10 mi
5:00 PM73 °FSunny.2 mph57%30.15 "Hg10 mi
4:30 PM77 °FSunny.2 mph47%30.18 "Hg10 mi
4:00 PM75 °FPassing clouds.3 mph50%30.18 "HgN/A
3:30 PM75 °FPassing clouds.3 mph50%30.18 "HgN/A
3:00 PM75 °FPassing clouds.3 mph50%30.18 "HgN/A
2:30 PM75 °FPassing clouds.3 mph50%30.21 "HgN/A
2:00 PM73 °FPassing clouds.3 mph53%30.21 "HgN/A
1:30 PM72 °FSunny.2 mph57%30.21 "Hg10 mi
1:00 PM68 °FSunny.3 mph64%30.21 "Hg10 mi
12:30 PM68 °FSunny.2 mph64%30.24 "Hg10 mi
12:00 PM66 °FPassing clouds.5 mph68%30.24 "HgN/A
11:30 AM64 °FSunny.2 mph73%30.27 "Hg10 mi
11:00 AM61 °FPassing clouds.3 mph77%30.27 "HgN/A
10:30 AM61 °FSunny.2 mph83%30.27 "Hg10 mi
10:00 AM59 °FClear.3 mph82%30.27 "HgN/A
9:30 AM57 °FPassing clouds.2 mph94%30.27 "HgN/A
9:00 AM54 °FRain. Scattered clouds.2 mph94%30.27 "HgN/A
Weather by CustomWeather, © 2016

See weather overviewHow to use our weather pages